Santa Rosa, CA

1:11 PM PST on December 09, 2019 (GMT -0800)
Sonoma County

Weather History for KSTS - November, 2019

Change the Weather History Date:

Saturday, November 16, 2019

  Actual Average Record
Temperature  
Mean Temperature 57 °F 52 °F  
Max Temperature 73 °F 64 °F 77 °F (2008)
Min Temperature 41 °F 40 °F 30 °F (2018)
Degree Days  
Heating Degree Days 8    
Month to date heating degree days 117  
Since 1 July heating degree days 319  
Cooling Degree Days 0    
Month to date cooling degree days 0  
Year to date cooling degree days 569  
Growing Degree Days 6 (Base 50)    
Moisture  
Dew Point 47 °F    
Average Humidity 75    
Maximum Humidity 100    
Minimum Humidity 49    
Precipitation  
Precipitation 0.00 in 0.14 in 0.90 in (2012)
Month to date precipitation T 2.31  
Year to date precipitation 38.54 26.87  
Sea Level Pressure  
Sea Level Pressure 30.12 in    
Wind  
Wind Speed 1 mph (South)    
Max Wind Speed 7 mph    
Max Gust Speed 9 mph    
Visibility 5 miles    
Events Fog    
T = Trace of Precipitation, MM = Missing Value Source: NWS Daily Summary

Daily Weather History Graph

Daily Weather History Graph

Search for Another Location

Airport or City:

Astronomy

Nov. 16, 2019 Rise Set
Actual Time 6:54 AM PST 4:57 PM PST
Civil Twilight 6:25 AM PST 5:25 PM PST
Nautical Twilight 5:53 AM PST 5:58 PM PST
Astronomical Twilight 5:22 AM PST 6:29 PM PST
Moon 8:37 PM PST (11/16) 10:51 AM PST (11/16)
Length of Visible Light 11h 00m
Length of Day
10h 03m
Waning Gibbous, 81% of the Moon is Illuminated
Nov 16
Waning Gibbous
Nov 19
Last Quarter
Nov 26
New
Dec 3
First Quarter
Dec 11
Full

Hourly Weather History & Observations

Time (PST) Temp. Dew Point Humidity Pressure Visibility Wind Dir Wind Speed Gust Speed Precip Events Conditions
12:53 AM 46.0 °F 46.0 °F 100% 30.14 in 0.5 mi Calm Calm - N/A Fog Fog
1:07 AM 46.0 °F 46.0 °F 100% 30.15 in 0.2 mi Calm Calm - N/A Fog Fog
1:46 AM 46.9 °F 46.9 °F 100% 30.15 in 0.5 mi Calm Calm - N/A Fog Fog
1:53 AM 46.9 °F 46.9 °F 100% 30.14 in 0.2 mi Calm Calm - N/A Fog Fog
2:41 AM 45.0 °F 45.0 °F 100% 30.15 in 0.5 mi Calm Calm - N/A Fog Fog
2:53 AM 45.0 °F 45.0 °F 100% 30.14 in 0.2 mi Calm Calm - N/A Fog Fog
3:53 AM 43.0 °F 43.0 °F 100% 30.13 in 0.2 mi Calm Calm - N/A Fog Fog
4:02 AM 44.1 °F 44.1 °F 100% 30.14 in 0.5 mi Calm Calm - N/A Fog Fog
4:12 AM 44.1 °F 44.1 °F 100% 30.14 in 0.2 mi Calm Calm - N/A Fog Fog
4:33 AM 44.1 °F 44.1 °F 100% 30.14 in 0.5 mi Calm Calm - N/A Fog Fog
4:53 AM 44.1 °F 44.1 °F 100% 30.13 in 0.2 mi Calm Calm - N/A Fog Fog
5:22 AM 43.0 °F 43.0 °F 100% 30.15 in 0.5 mi Calm Calm - N/A Fog Fog
5:53 AM 41.0 °F 41.0 °F 100% 30.14 in 0.5 mi Calm Calm - N/A Fog Fog
6:12 AM 43.0 °F 43.0 °F 100% 30.16 in 0.2 mi Calm Calm - N/A Fog Fog
6:22 AM 43.0 °F 43.0 °F 100% 30.16 in 0.8 mi Calm Calm - N/A   Mist
6:53 AM 43.0 °F 43.0 °F 100% 30.14 in 0.2 mi Calm Calm - N/A Fog Fog
7:53 AM 43.0 °F 43.0 °F 100% 30.16 in 0.2 mi Calm Calm - N/A Fog Fog
8:46 AM 46.0 °F 46.0 °F 100% 30.18 in 0.5 mi Calm Calm - N/A Fog Fog
8:53 AM 46.9 °F 46.9 °F 100% 30.16 in 1.0 mi Calm Calm - N/A   Mist
8:58 AM 48.0 °F 48.0 °F 100% 30.18 in 3.0 mi Calm Calm - N/A   Mostly Cloudy
9:53 AM 55.0 °F 52.0 °F 89% 30.16 in 10.0 mi Calm Calm - N/A Fog Patches of Fog
10:53 AM 62.1 °F 52.0 °F 70% 30.14 in 10.0 mi Calm Calm - N/A   Scattered Clouds
11:53 AM 66.0 °F 52.0 °F 60% 30.11 in 10.0 mi WNW 3.5 mph - N/A   Clear
12:53 PM 70.0 °F 52.0 °F 53% 30.07 in 10.0 mi SE 4.6 mph - N/A   Scattered Clouds
1:53 PM 72.0 °F 52.0 °F 49% 30.06 in 10.0 mi Variable 3.5 mph - N/A   Clear
2:53 PM 72.0 °F 52.0 °F 49% 30.06 in 10.0 mi SSE 3.5 mph - N/A   Mostly Cloudy
3:53 PM 71.1 °F 54.0 °F 55% 30.06 in 10.0 mi South 6.9 mph - N/A   Scattered Clouds
4:53 PM 64.9 °F 53.1 °F 65% 30.06 in 10.0 mi South 5.8 mph - N/A   Scattered Clouds
5:53 PM 59.0 °F 51.1 °F 75% 30.07 in 10.0 mi South 4.6 mph - N/A   Scattered Clouds
6:53 PM 55.0 °F 50.0 °F 83% 30.07 in 10.0 mi Calm Calm - N/A   Clear
7:53 PM 53.1 °F 51.1 °F 93% 30.08 in 10.0 mi Calm Calm - N/A   Clear
8:53 PM 50.0 °F 48.0 °F 93% 30.08 in 10.0 mi Calm Calm - N/A   Clear
9:53 PM 48.9 °F 46.9 °F 93% 30.09 in 10.0 mi Calm Calm - N/A   Clear
10:53 PM 46.9 °F 46.0 °F 97% 30.09 in 10.0 mi Calm Calm - N/A   Clear
11:53 PM 46.0 °F 45.0 °F 96% 30.09 in 10.0 mi Calm Calm - N/A   Clear